Погода в Афанасьевке

Россия / Курская область     51°35′30″N   36°48′47″E
темп.,
°C
ветер,
м/с
пор.,
м/с
влажн.,
%
обл.,
%
осадки,
мм/ч
давл.,
гПа
погр.,
м
2 марта, вт
вт200:00−1з51086100 0.0 1026558
03:00−1зюз61289100 0.0 1024443
06:00−1зюз71489100 0.0 1021623
09:000з81394100 0.0 1019684
12:00+1з61295100 0.0 1017698
15:00+2з71294100 0.0 1015713
18:00+1зсз61297100 0.1 1013551
21:00+1сз61298100 2.1 1014599
3 марта, ср
ср300:000ссз6138599 0.7 1014686
03:00−1ссз5128961 0.7 1016557
06:00−1ссз6118899 0.2 1018859
09:00−1ссз71184100 0.3 10201100
12:000ссз7107348 0.1 10211270
15:000сз597459 0.1 1022877
18:00−1з410790 0.0 1021327
21:00−1з512870 0.0 1022394
4 марта, чт
чт400:00−2з511900 0.0 1021322
03:00−2зюз49926 0.0 1020264
06:00−2зюз5119124 0.0 1018289
09:00−1зюз6138112 0.0 1016495
12:00+2юз813660 0.0 1013722
15:00+4юз815620 0.0 1010842
18:00+3юз716810 0.0 1007658
21:00+3юз7178318 0.0 1007591
5 марта, пт
пт500:00+3зюз61291100 0.1 1006455
03:00+2юз499499 0.1 1006261
06:00+1зюз4109390 0.0 1006355
09:00+2зюз498890 0.0 1007518
12:00+1ююз2699100 0.9 1006297
15:00+2юз41198100 4.5 1005546
18:00+2з51198100 2.6 1004493
21:00+1сз3598100 3.4 1005219
6 марта, сб
сб600:00−1ссз6990100 0.1 1007497
03:00−2ссз6984100 0.1 1010785
06:00−3ссз577996 0.1 1012635
09:00−4ссз577048 0.1 1014754
12:00−2сз45520 0.0 10151278
15:00−1сз345145 0.1 10151266
18:00−3ссз2278100 0.4 1015374
21:00−3ссз4769100 1.6 10161150